Weather reports worldwide

Advertisment
Bergamo/Orio al Serio, Italy (16076): temperature & dewpoint: 12.09.2019 05:00:00 - 18.09.2019 05:00:00 (CEST)Bergamo/Orio al Serio, Italy (16076): wind speed: 12.09.2019 05:00:00 - 18.09.2019 05:00:00 (CEST)Bergamo/Orio al Serio, Italy (16076): wind direction: 12.09.2019 05:00:00 - 18.09.2019 05:00:00 (CEST)Bergamo/Orio al Serio, Italy (16076): reduced air pressure: 12.09.2019 05:00:00 - 18.09.2019 05:00:00 (CEST)Bergamo/Orio al Serio, Italy (16076): visibility: 12.09.2019 05:00:00 - 18.09.2019 05:00:00 (CEST)Bergamo/Orio al Serio, Italy (16076): precipitation: 12.09.2019 05:00:00 - 18.09.2019 05:00:00 (CEST)
Date & Time tt [°C] td [°C] ff [km/h] ff [kn] dd ppp [hPa] vv [km] rr [mm]
18.09.2019 05:00:00 19,5 19,4 5 3 N 1014,5 10 0,0
18.09.2019 04:00:00 19,0 19,0 8 4 N - 10 -
18.09.2019 03:00:00 20,0 19,0 5 3 N - 10 -
18.09.2019 02:00:00 19,1 19,1 4 2 - 1014,3 10 -
18.09.2019 01:00:00 20,0 18,0 2 1 - - 10 -
18.09.2019 00:00:00 22,0 17,0 4 2 - - 10 -
17.09.2019 23:00:00 22,1 18,9 5 3 NW 1014,3 10 0,0
17.09.2019 22:00:00 23,0 19,0 2 1 - - 10 -
17.09.2019 21:00:00 24,0 19,0 5 3 N - 10 -
17.09.2019 20:00:00 25,7 16,8 9 5 SW 1013,0 10 -
17.09.2019 19:00:00 27,0 17,0 5 3 W - 10 -
17.09.2019 18:00:00 28,0 17,0 8 4 WSW - 10 -
17.09.2019 17:00:00 28,5 18,0 9 5 W 1013,0 10 0,0
17.09.2019 16:00:00 28,0 17,0 11 6 W - 10 -
17.09.2019 15:00:00 28,0 18,0 9 5 - - 10 -
17.09.2019 14:00:00 27,0 17,0 11 6 W 1014,5 10 -
17.09.2019 13:00:00 26,0 17,0 8 4 SSW - 10 -
17.09.2019 12:00:00 25,0 17,0 8 4 SW - 10 -
17.09.2019 11:00:00 23,8 17,7 4 2 - 1016,3 5 0,0
17.09.2019 10:00:00 23,0 19,0 2 1 - - 4,5 -
17.09.2019 09:00:00 20,0 19,0 4 2 N - 4,0 -
17.09.2019 08:00:00 18,8 18,4 4 2 N 1016,2 4,5 -
17.09.2019 07:00:00 18,0 18,0 5 3 N - 4,0 -
17.09.2019 06:00:00 18,0 18,0 5 3 N - 8 -
17.09.2019 05:00:00 18,9 18,5 8 4 N 1016,1 8 0,0
17.09.2019 04:00:00 19,0 19,0 5 3 NNE - 7 -
17.09.2019 03:00:00 19,0 19,0 5 3 NNE - 7 -
17.09.2019 02:00:00 19,9 18,9 5 3 N 1016,8 7 -
17.09.2019 01:00:00 20,0 19,0 8 4 N - 8 -
17.09.2019 00:00:00 21,0 19,0 8 4 N - 10 -
16.09.2019 23:00:00 20,6 19,2 8 4 N 1017,4 10 0,0
16.09.2019 22:00:00 22,0 19,0 8 4 N - 10 -
16.09.2019 21:00:00 23,0 19,0 5 3 N - 9 -
16.09.2019 20:00:00 24,9 17,5 5 3 SSW 1016,6 7 -
16.09.2019 19:00:00 26,0 17,0 11 6 SSW - 8 -
16.09.2019 18:00:00 28,0 18,0 8 4 W - 8 -
16.09.2019 17:00:00 27,6 17,2 8 4 W 1016,8 8 0,0
16.09.2019 16:00:00 27,0 18,0 8 4 WNW - 8 -
16.09.2019 15:00:00 27,0 17,0 5 3 - - 8 -
16.09.2019 14:00:00 26,7 17,7 5 3 WNW 1018,9 8 -
16.09.2019 13:00:00 26,0 18,0 8 4 SW - 8 -
16.09.2019 12:00:00 25,0 17,0 5 3 W - 7 -
16.09.2019 11:00:00 23,5 16,5 4 2 - 1020,7 7 0,0
16.09.2019 10:00:00 22,0 18,0 2 1 - - 7 -
16.09.2019 09:00:00 20,0 18,0 4 2 N - 10 -
16.09.2019 08:00:00 18,1 17,5 5 3 N 1020,6 8 -
16.09.2019 07:00:00 18,0 17,0 5 3 N - 8 -
16.09.2019 06:00:00 19,0 18,0 5 3 N - 9 -
16.09.2019 05:00:00 18,8 18,0 9 5 N 1021,1 8 0,0
16.09.2019 04:00:00 19,0 18,0 5 3 N - 10 -
16.09.2019 03:00:00 19,0 18,0 8 4 N - 10 -
16.09.2019 02:00:00 18,9 18,0 8 4 N 1021,8 10 -
16.09.2019 01:00:00 19,0 18,0 9 5 N - 10 -
16.09.2019 00:00:00 19,0 18,0 8 4 NNE - 10 -
15.09.2019 23:00:00 19,8 18,1 9 5 NNE 1022,8 10 0,0
15.09.2019 22:00:00 21,0 18,0 9 5 N - - -
15.09.2019 21:00:00 21,0 18,0 5 3 NNE - 10 -
15.09.2019 20:00:00 22,3 16,9 4 2 - 1022,5 10 -
15.09.2019 19:00:00 25,0 16,0 8 4 S - 10 -
15.09.2019 18:00:00 26,0 16,0 9 5 SSW - 10 -
15.09.2019 17:00:00 26,6 15,7 8 4 - 1022,7 10 0,0
15.09.2019 16:00:00 26,0 16,0 9 5 W - 10 -
15.09.2019 15:00:00 26,0 17,0 4 2 - - 10 -
15.09.2019 14:00:00 24,6 17,0 8 4 WSW 1025,3 10 -
15.09.2019 13:00:00 24,0 19,0 4 2 - - 10 -
15.09.2019 12:00:00 23,0 18,0 8 4 S - 10 -
15.09.2019 11:00:00 22,1 16,8 2 1 - 1027,1 9 0,0
15.09.2019 10:00:00 21,0 17,0 2 1 - - 9 -
15.09.2019 09:00:00 20,0 17,0 5 3 N - 9 -
15.09.2019 08:00:00 19,0 17,1 8 4 N 1026,5 9 -
15.09.2019 07:00:00 18,0 17,0 9 5 N - 10 -
15.09.2019 06:00:00 18,0 17,0 9 5 N - 10 -
15.09.2019 05:00:00 18,5 17,0 8 4 N 1026,3 10 0,0
15.09.2019 04:00:00 19,0 17,0 8 4 N - 10 -
15.09.2019 03:00:00 20,0 17,0 5 3 NNE - 10 -
15.09.2019 02:00:00 20,0 16,5 5 3 ENE 1027,5 10 -
15.09.2019 01:00:00 19,0 17,0 9 5 N - 10 -
15.09.2019 00:00:00 19,0 17,0 9 5 N - 10 -
14.09.2019 23:00:00 19,3 16,8 9 5 N 1028,1 10 0,0
14.09.2019 22:00:00 20,0 17,0 8 4 NNE - 10 -
14.09.2019 21:00:00 21,0 17,0 8 4 N - 10 -
14.09.2019 20:00:00 22,5 15,5 4 2 - 1027,1 8 -
14.09.2019 19:00:00 25,0 15,0 5 3 SE - 8 -
14.09.2019 18:00:00 27,0 15,0 4 2 - - 8 -
14.09.2019 17:00:00 26,9 16,6 4 2 - 1027,2 8 0,0
14.09.2019 16:00:00 27,0 15,0 8 4 - - 8 -
14.09.2019 15:00:00 27,0 15,0 5 3 SSE - 8 -
14.09.2019 14:00:00 26,1 15,9 5 3 S 1028,9 8 -
14.09.2019 13:00:00 25,0 15,0 5 3 - - 10 -
14.09.2019 12:00:00 25,0 15,0 5 3 - - 10 -
14.09.2019 11:00:00 24,8 16,7 5 3 ESE 1029,9 10 0,0
14.09.2019 10:00:00 22,0 17,0 4 2 - - 10 -
14.09.2019 09:00:00 19,0 17,0 8 4 N - 10 -
14.09.2019 08:00:00 17,6 16,2 8 4 N 1029,4 10 -
14.09.2019 07:00:00 17,0 16,0 9 5 N - 10 -
14.09.2019 06:00:00 18,0 16,0 8 4 N - 10 -
14.09.2019 05:00:00 17,4 16,2 8 4 N 1028,6 10 0,0
14.09.2019 04:00:00 18,0 16,0 5 3 N - 10 -
14.09.2019 03:00:00 18,0 16,0 8 4 N - 10 -
14.09.2019 02:00:00 17,8 16,7 8 4 NNE 1029,4 10 -
14.09.2019 01:00:00 19,0 17,0 9 5 N - 10 -
14.09.2019 00:00:00 19,0 17,0 8 4 N - 10 -
13.09.2019 23:00:00 19,6 16,5 8 4 N 1029,7 10 0,0
13.09.2019 22:00:00 20,0 17,0 9 5 NNE - 10 -
13.09.2019 21:00:00 21,0 17,0 9 5 N - 10 -
13.09.2019 20:00:00 22,2 15,1 2 1 - 1028,5 10 -
13.09.2019 19:00:00 26,0 14,0 9 5 S - 10 -
13.09.2019 18:00:00 27,0 14,0 9 5 S - 10 -
13.09.2019 17:00:00 27,2 14,0 4 2 - 1028,6 10 0,0
13.09.2019 16:00:00 27,0 15,0 8 4 - - 10 -
13.09.2019 15:00:00 27,0 14,0 9 5 SW - 10 -
13.09.2019 14:00:00 26,5 14,1 8 4 - 1030,0 10 -
13.09.2019 13:00:00 26,0 15,0 4 2 - - 10 -
13.09.2019 12:00:00 25,0 15,0 5 3 - - 10 -
13.09.2019 11:00:00 24,1 14,2 4 2 - 1031,7 10 0,0
13.09.2019 10:00:00 22,0 16,0 4 2 - - 10 -
13.09.2019 09:00:00 20,0 16,0 5 3 NNE - 10 -
13.09.2019 08:00:00 17,5 15,2 5 3 NNW 1031,1 10 -
13.09.2019 07:00:00 17,0 15,0 8 4 N - 10 -
13.09.2019 06:00:00 17,0 15,0 11 6 N - 10 -
13.09.2019 05:00:00 16,7 15,0 8 4 N 1030,4 10 0,0
13.09.2019 04:00:00 17,0 15,0 9 5 N - 10 -
13.09.2019 03:00:00 18,0 15,0 8 4 N - 10 -
13.09.2019 02:00:00 18,2 14,8 8 4 NE 1029,9 10 -
13.09.2019 01:00:00 18,0 15,0 9 5 N - 10 -
13.09.2019 00:00:00 18,0 15,0 9 5 N - 10 -
12.09.2019 23:00:00 18,7 15,3 8 4 N 1029,8 10 0,0
12.09.2019 22:00:00 20,0 15,0 9 5 N - 10 -
12.09.2019 21:00:00 21,0 15,0 8 4 NNE - 10 -
12.09.2019 20:00:00 23,9 14,0 5 3 S 1028,9 10 -
12.09.2019 19:00:00 26,0 13,0 8 4 S - 10 -
12.09.2019 18:00:00 26,0 13,0 9 5 SSE - 10 -
12.09.2019 17:00:00 26,5 12,9 5 3 - 1028,6 10 0,0
12.09.2019 16:00:00 26,0 13,0 11 6 SSW - 10 -
12.09.2019 15:00:00 26,0 13,0 11 6 S - 10 -
12.09.2019 14:00:00 25,9 13,6 8 4 WSW 1029,6 10 -
12.09.2019 13:00:00 24,0 14,0 4 2 - - 10 -
12.09.2019 12:00:00 24,0 13,0 4 2 - - 10 -
12.09.2019 11:00:00 23,3 13,3 2 1 - 1029,5 10 0,0
12.09.2019 10:00:00 21,0 14,0 4 2 - - 10 -
12.09.2019 09:00:00 19,0 15,0 5 3 N - 10 -
12.09.2019 08:00:00 15,9 14,4 5 3 N 1027,7 10 -
12.09.2019 07:00:00 15,0 14,0 8 4 N - 10 -
12.09.2019 06:00:00 15,0 14,0 5 3 N - 10 -
12.09.2019 05:00:00 15,3 14,4 8 4 NNE 1025,9 10 0,0

tt = temperature
td = dewpoint
ff = wind speed
dd = wind direction
ppp = reduced air pressure
vv = visibility
rr = precipitation

Next stations